Tracking 19709 objects as of 20-Jun-2019
HD Live streaming from Space Station
objects crossing your sky now

FENGYUN 2H AKM

Track FENGYUN 2H AKM now!


NORAD ID: 43497
Int'l Code: 2018-050C
Perigee: 35,484.8 km
Apogee: 36,208.1 km
Inclination: 1.6 °
Period: 1,438.8 minutes
Semi major axis: 42217 km
RCS: Unknown
Launch date: June 5, 2018
Source: People's Republic of China (PRC)
Launch site: Xichang Space Center, China (XSC)

Note: This is a ROCKET BODY
aabbcc
Your satellite tracking list
Your tracking list is empty




NASA's NSSDC Master Catalog

Two Line Element Set (TLE):
1 43497U 18050C   19169.52552976  .00000064  00000-0  00000+0 0  9997
2 43497   1.5615 281.2985 0085661  70.9505 290.8518  1.00084183  3724
Source of the keplerian elements: AFSPC